Location: Bacea
(45.9500°N, 22.6667°E)
Time: 23:58:20
(UTC+00:00)

Cosmos 1953 - Pass Details

Date: 02 June 2022
Orbit: 533 x 555 km, 82.5° (Epoch: 01 July)

Event Time Altitude Azimuth Distance (km) Brightness Sun altitude
Rises 21:20:52 0° 1° (N) 2,717 7.2 -20.1°
Reaches altitude 10° 21:23:17 10° 13° (NNE) 1,815 5.8 -20.2°
Maximum altitude 21:26:44 27° 73° (ENE) 1,051 3.7 -20.4°
Enters shadow 21:27:25 26° 91° (E) 1,090 3.6 -20.4°
